Flag for U.S.A. Weather past 2 weeks in Houston, Texas, U.S.A.

Now
80 °F

Broken clouds.


Feels Like: 85 °F
Forecast: 74 / 86 °F
Wind: 5 mph from Southwest

Location: Houston Hobby Airport

Current Time: May 30, 2015 at 9:46:41 AM

Latest Report: May 30, 2015 at 8:53 AM


Visibility: 10 mi

Pressure: 30.04 "Hg

Humidity: 81%

Dew point: 74 °F

Location of HoustonLocation

Historic Weather in Houston — Graph

°F

Houston temperature yesterday

Maximum temperature yesterday: 87 °F (at 4:53 PM)
Minimum temperature yesterday: 71 °F (at 7:53 AM)
Average temperature yesterday: 78 °F

Past Weeks' High & Low Weather Summary

 TemperatureHumidityPressure
High88 °F (May 18, 3:53 PM)100% (May 30, 6:53 AM)30.16 "Hg (May 30, 6:53 AM)
Low66 °F (May 25, 11:53 PM)48% (May 29, 4:53 PM)29.84 "Hg (May 25, 5:53 PM)
Average78 °F83%30.01 "Hg
* Reported May 15 7:53 AM — May 30 7:53 AM, Houston, Weather by CustomWeather, © 2015

Note: Actual official high and low records may vary slightly from our data, if they occured in-between our weather recording intervals... More about our weather records

Advertising

Houston weather history for previous 24 hours

 ConditionsComfort  
Time TempWeatherWind HumidityBarometerVisibility
7:53 AM
Sat, May 30
78 °FScattered clouds.3 mph90%30.03 "Hg10 mi
6:53 AM73 °FPassing clouds.No wind100%30.02 "Hg9 mi
5:53 AM75 °FFog.No wind94%30.00 "Hg8 mi
4:53 AM75 °FPassing clouds.No wind96%29.99 "Hg9 mi
3:53 AM75 °FPassing clouds.No wind96%29.98 "Hg10 mi
2:53 AM76 °FPassing clouds.No wind94%29.99 "Hg10 mi
1:53 AM76 °FPassing clouds.3 mph94%30.00 "Hg10 mi
12:53 AM76 °FPassing clouds.5 mph94%30.01 "Hg10 mi
11:53 PM
Fri, May 29
76 °FPassing clouds.3 mph91%30.01 "Hg10 mi
10:53 PM76 °FPassing clouds.6 mph91%30.00 "Hg10 mi
9:53 PM77 °FPassing clouds.6 mph85%29.99 "Hg10 mi
8:53 PM79 °FScattered clouds.7 mph77%29.98 "Hg10 mi
7:53 PM82 °FScattered clouds.6 mph60%29.96 "Hg10 mi
6:53 PM84 °FScattered clouds.9 mph55%29.96 "Hg10 mi
5:53 PM86 °FScattered clouds.6 mph51%29.95 "Hg10 mi
4:53 PM87 °FScattered clouds.9 mph48%29.95 "Hg10 mi
3:53 PM86 °FBroken clouds.9 mph55%29.97 "Hg10 mi
2:53 PM86 °FPartly sunny.8 mph53%29.98 "Hg10 mi
1:53 PM84 °FBroken clouds.9 mph57%29.99 "Hg10 mi
12:53 PM84 °FPartly sunny.7 mph61%29.98 "Hg10 mi
11:53 AM77 °FBroken clouds.6 mph79%29.96 "Hg10 mi
10:53 AM76 °FMore clouds than sun.7 mph82%29.98 "Hg10 mi
9:53 AM73 °FMostly cloudy.8 mph88%29.97 "Hg10 mi
Weather by CustomWeather, © 2015

See weather overviewHow to use our weather pages